Location: Antoign�
(47.0844°N, 0.1131°W)
Time: 02:56:56
(UTC+00:00)

SME Rocket - Pass Details

Date: 03 March 2021
Orbit: 550 x 2652 km, 99.9° (Epoch: 16 April)

Event Time Altitude Azimuth Distance (km) Brightness Sun altitude
Rises 19:07:11 0° 17° (NNE) 4,975 7.6 -14.1°
Reaches altitude 10° 19:10:54 10° 23° (NNE) 3,645 6.8 -14.7°
Maximum altitude 19:18:31 43° 93° (E) 1,470 4.5 -16.0°
Drops below altitude 10° 19:23:36 10° 165° (SSE) 2,430 5.9 -16.9°
Sets 19:25:39 0° 172° (S) 3,183 6.5 -17.2°
